Location: Homewood
(41.1836°S, 175.9581°E)
Time: 11:47:57
(UTC+00:00)

SL-4 R/B - Pass Details

Date: 18 April 2024
Orbit: 413 x 603 km, 51.6° (Epoch: 24 May)

Event Time Altitude Azimuth Distance (km) Brightness Sun altitude
Exits shadow 16:09:32 24° 103° (ESE) 1,122 4.2 -30.9°
Drops below altitude 10° 16:11:22 10° 116° (ESE) 1,787 5.5 -30.5°
Sets 16:13:45 0° 121° (ESE) 2,720 6.6 -30.1°
